Weather History for KUNV - February, 2014

Change the Weather History Date:

Tuesday, February 4, 2014

  Actual Average Record
Temperature  
Mean Temperature 23 °F -  
Max Temperature 32 °F 34 °F 58 °F (1991)
Min Temperature 14 °F 18 °F -3 °F (1955)
Degree Days  
Heating Degree Days 42    
Moisture  
Dew Point 14 °F    
Average Humidity 71    
Maximum Humidity 86    
Minimum Humidity 48    
Precipitation  
Precipitation 0.00 in - - ()
Sea Level Pressure  
Sea Level Pressure 30.30 in    
Wind  
Wind Speed 1 mph (NE)    
Max Wind Speed 8 mph    
Max Gust Speed -    
Visibility 9 miles    
Events Snow    
Averages and records for this station are not official NWS values.
T = Trace of Precipitation, MM = Missing Value Source: NWS Daily Summary

Daily Weather History Graph

Daily Weather History Graph

Search for Another Location

Airport or City:

Trip Planner

Search our weather history database for the weather conditions in past years. The results will help you decide how hot, cold, wet, or windy it might be!

Date:

Astronomy

Feb. 04, 2014 Rise Set
Actual Time 7:18 AM EST 5:32 PM EST
Civil Twilight 6:49 AM EST 6:01 PM EST
Nautical Twilight 6:17 AM EST 6:33 PM EST
Astronomical Twilight 5:45 AM EST 7:06 PM EST
Moon 9:52 AM EST (2/4) 11:27 PM EST (2/4)
Length of Visible Light 11h 11m
Length of Day
10h 13m
Waxing Crescent, 29% of the Moon is Illuminated
Feb 4
Waxing Crescent
Feb 6
First Quarter
Feb 14
Full
Feb 22
Last Quarter
Mar 1
New

Hourly Weather History & Observations

Time (EST) Temp. Windchill Dew Point Humidity Pressure Visibility Wind Dir Wind Speed Gust Speed Precip Events Conditions
12:15 AM 26.1 °F - 15.4 °F 64% 30.30 in 10.0 mi Calm Calm - N/A   Overcast
12:35 AM 25.0 °F 19.3 °F 15.3 °F 67% 30.30 in 10.0 mi NW 4.6 mph - N/A   Scattered Clouds
12:55 AM 24.8 °F 20.5 °F 15.3 °F 67% 30.30 in 10.0 mi NW 3.5 mph - N/A   Clear
1:15 AM 23.7 °F - 14.4 °F 67% 30.30 in 10.0 mi Calm Calm - N/A   Clear
1:35 AM 21.9 °F - 13.5 °F 70% 30.31 in 10.0 mi Calm Calm - N/A   Clear
1:55 AM 20.8 °F - 14.4 °F 76% 30.33 in 10.0 mi Calm Calm - N/A   Clear
2:15 AM 21.9 °F - 15.4 °F 76% 30.33 in 10.0 mi Calm Calm - N/A   Clear
2:35 AM 21.0 °F - 14.4 °F 75% 30.34 in 10.0 mi Calm Calm - N/A   Clear
2:55 AM 21.6 °F - 15.4 °F 77% 30.34 in 10.0 mi Calm Calm - N/A   Clear
3:15 AM 21.7 °F - 15.1 °F 76% 30.34 in 10.0 mi Calm Calm - N/A   Clear
3:35 AM 17.2 °F - 12.7 °F 83% 30.34 in 7.0 mi Calm Calm - N/A   Clear
3:55 AM 18.5 °F - 14.5 °F 85% 30.33 in 7.0 mi Calm Calm - N/A   Clear
4:15 AM 19.0 °F - 14.5 °F 83% 30.33 in 10.0 mi Calm Calm - N/A   Clear
4:35 AM 18.1 °F 12.9 °F 14.2 °F 84% 30.35 in 7.0 mi North 3.5 mph - N/A   Clear
4:55 AM 16.2 °F - 12.0 °F 84% 30.35 in 7.0 mi Calm Calm - N/A   Clear
5:15 AM 17.1 °F - 12.9 °F 84% 30.35 in 7.0 mi Calm Calm - N/A   Clear
5:35 AM 15.1 °F - 10.8 °F 83% 30.36 in 5.0 mi Calm Calm - N/A   Clear
5:53 AM 15.8 °F - 12.2 °F 86% 30.36 in 7.0 mi Calm Calm - N/A   Clear
6:53 AM 15.8 °F - 12.2 °F 86% 30.37 in 10.0 mi Calm Calm - N/A   Clear
7:53 AM 14.0 °F - 8.6 °F 79% 30.38 in 10.0 mi Calm Calm - N/A   Clear
8:53 AM 17.6 °F - 14.0 °F 86% 30.41 in 10.0 mi Calm Calm - N/A   Clear
9:53 AM 19.4 °F - 14.0 °F 80% 30.41 in 10.0 mi Calm Calm - N/A   Clear
10:53 AM 23.0 °F 18.4 °F 17.6 °F 80% 30.40 in 10.0 mi NNE 3.5 mph - N/A   Clear
11:53 AM 26.6 °F - 14.0 °F 59% 30.41 in 10.0 mi Calm Calm - N/A   Clear
12:53 PM 28.4 °F - 14.0 °F 55% 30.36 in 10.0 mi Calm Calm - N/A   Clear
1:53 PM 28.4 °F - 14.0 °F 55% 30.31 in 10.0 mi Calm Calm - N/A   Clear
2:53 PM 32.0 °F - 14.0 °F 48% 30.27 in 10.0 mi Calm Calm - N/A   Clear
3:53 PM 28.4 °F - 14.0 °F 55% 30.28 in 10.0 mi Calm Calm - N/A   Overcast
4:53 PM 28.4 °F 22.2 °F 15.8 °F 59% 30.28 in 10.0 mi Variable 5.8 mph - N/A   Overcast
5:53 PM 26.6 °F 20.0 °F 15.8 °F 64% 30.26 in 10.0 mi Variable 5.8 mph - N/A   Overcast
6:53 PM 26.6 °F - 14.0 °F 59% 30.28 in 10.0 mi Calm Calm - N/A   Mostly Cloudy
7:53 PM 26.6 °F - 15.8 °F 64% 30.25 in 10.0 mi Calm Calm - N/A   Overcast
8:53 PM 26.6 °F 18.2 °F 14.0 °F 59% 30.21 in 10.0 mi East 8.1 mph - N/A   Overcast
9:55 PM 26.2 °F 18.6 °F 13.3 °F 58% 30.21 in 10.0 mi East 6.9 mph - N/A   Overcast
10:15 PM 25.9 °F 19.2 °F 14.5 °F 62% 30.18 in 10.0 mi ENE 5.8 mph - N/A   Overcast
10:35 PM 25.7 °F 21.5 °F 14.0 °F 61% 30.20 in 10.0 mi East 3.5 mph - N/A   Overcast
10:55 PM 26.1 °F 19.4 °F 13.8 °F 60% 30.21 in 10.0 mi East 5.8 mph - N/A   Overcast
11:15 PM 25.3 °F 16.7 °F 14.9 °F 65% 30.18 in 3.0 mi East 8.1 mph - N/A Snow Light Snow
11:35 PM 23.9 °F 16.8 °F 18.3 °F 79% 30.17 in 0.8 mi East 5.8 mph - N/A Snow Snow
11:55 PM 23.7 °F 15.6 °F 20.1 °F 86% 30.14 in 0.5 mi NE 6.9 mph - N/A Snow Heavy Snow